CW5752 Weather Reports


time (UTC)temp
C
wind
direction
speed
KPH
gust
KPH
rain 1hr
cm
rain 24hr
cm
rain mn
cm
humidity
%
barometer
mb
20260506050521 7 340 3.2 9.7 0.20 3.07 0.03 92 1011.3
20260506044522 8 340 3.2 19.3 0.15 2.97 2.97 92 1011.2
20260506043521 8 348 4.8 11.3 0.08 2.90 2.87 92 1010.8
20260506042542 8 342 1.6 14.5 0.08 2.87 2.84 93 1010.4
20260506041521 8 330 4.8 12.9 0.13 2.87 2.84 93 1010.6
20260506040521 8 354 4.8 11.3 0.15 2.87 2.84 93 1010.3
20260506035517 8 340 3.2 11.3 0.18 2.84 2.84 93 1010.7
20260506034516 8 319 0.0 8.0 0.23 2.82 2.82 93 1010.3
20260506033522 8 318 1.6 4.8 0.25 2.82 2.82 93 1010.6
20260506032522 8 319 1.6 8.0 0.25 2.79 2.79 93 1010.6
20260506031521 8 330 1.6 4.8 0.18 2.74 2.74 93 1010.6
20260506030521 8 329 0.0 8.0 0.30 2.72 2.72 93 1010.5
20260506025522 8 333 0.0 9.7 0.25 2.64 2.64 93 1010.1
20260506024516 8 335 0.0 9.7 0.28 2.59 2.59 93 1009.5
20260506023536 9 346 0.0 11.3 0.28 2.57 2.57 93 1009.4
20260506022522 9 346 1.6 6.4 0.25 2.54 2.54 93 1009.8
20260506021522 9 338 0.0 9.7 0.28 2.54 2.54 93 1009.0
20260506020521 9 335 3.2 8.0 0.20 2.39 2.39 93 1009.8
20260506015520 9 343 3.2 9.7 0.23 2.36 2.36 93 1009.4
20260506014541 9 324 0.0 8.0 0.36 2.31 2.31 92 1008.7
20260506013516 9 324 0.0 8.0 0.33 2.29 2.29 93 1008.4
20260506012521 9 352 3.2 14.5 0.33 2.29 2.29 92 1008.5
20260506011522 10 344 3.2 12.9 0.30 2.26 2.26 92 1008.2
20260506010522 10 337 1.6 8.0 0.33 2.18 2.18 92 1008.5
20260506005542 10 333 1.6 6.4 0.28 2.13 2.13 92 1008.8
20260506004522 10 4 1.6 4.8 0.10 1.96 1.96 92 1008.3
20260506003521 10 5 0.0 4.8 0.10 1.96 1.96 92 1007.9
20260506002516 10 105 0.0 3.2 0.10 1.96 1.96 92 1007.5
20260506001521 10 107 0.0 8.0 0.10 1.96 1.96 91 1007.6
20260506000521 10 0.0 3.2 0.00 1.85 1.85 91 1007.6
20260505235521 10 333 0.0 4.8 0.00 1.85 1.85 91 1008.0
20260505234521 10 334 0.0 6.4 0.00 1.85 1.85 90 1008.0
20260505233542 10 334 0.0 8.0 0.00 1.85 1.85 90 1008.0
20260505232517 10 345 0.0 3.2 0.00 1.85 1.85 91 1008.2
20260505231517 10 347 0.0 4.8 0.00 1.85 1.85 91 1007.8
20260505230521 10 137 0.0 4.8 0.00 1.85 1.85 91 1007.9
20260505225521 10 297 0.0 6.4 0.03 1.85 1.85 91 1007.4
20260505224541 10 328 0.0 4.8 0.03 1.85 1.85 92 1007.9
20260505223521 10 328 0.0 6.4 0.03 1.85 1.85 92 1008.3
20260505222521 10 336 1.6 11.3 0.03 1.85 1.85 92 1008.3
20260505221516 10 320 0.0 12.9 0.03 1.85 1.85 92 1008.2
20260505220521 11 323 0.0 12.9 0.03 1.85 1.85 93 1008.4
20260505215521 11 338 0.0 6.4 0.00 1.83 1.83 93 1008.5
20260505214521 11 350 1.6 8.0 0.03 1.83 1.83 92 1008.5
20260505213522 11 355 1.6 11.3 0.03 1.83 1.83 92 1008.4
20260505212602 11 330 1.6 9.7 0.03 1.83 1.83 92 1008.2
20260505211521 11 330 1.6 9.7 0.05 1.83 1.83 92 1008.1
20260505210536 11 349 6.4 19.3 0.05 1.83 1.83 92 1007.9
20260505205541 11 348 6.4 17.7 0.05 1.83 1.83 92 1007.9
20260505204541 11 333 4.8 14.5 0.03 1.80 1.80 92 1008.1
20260505203521 11 331 3.2 17.7 0.03 1.80 1.80 92 1008.0
20260505202521 12 346 3.2 9.7 0.03 1.80 1.80 93 1007.9
20260505201521 12 343 1.6 9.7 0.00 1.78 1.78 93 1007.9
20260505200516 12 321 3.2 9.7 0.03 1.78 1.78 93 1007.9
20260505195536 12 332 3.2 8.0 0.05 1.78 1.78 92 1007.8
20260505194521 12 304 1.6 6.4 0.18 1.78 1.78 93 1007.8
20260505193521 12 299 1.6 6.4 0.18 1.78 1.78 93 1007.8
20260505192521 12 294 0.0 3.2 0.18 1.78 1.78 93 1007.8
20260505191521 12 294 0.0 4.8 0.18 1.78 1.78 92 1007.8
20260505190521 12 314 0.0 3.2 0.15 1.75 1.75 92 1007.8
20260505185516 12 318 0.0 6.4 0.13 1.73 1.73 92 1007.6
20260505184521 12 329 1.6 8.0 0.00 1.60 1.60 92 1007.8
20260505183521 12 328 1.6 6.4 0.00 1.60 1.60 92 1007.8
20260505182521 12 333 1.6 6.4 0.00 1.60 1.60 92 1007.8
20260505181521 12 337 0.0 8.0 0.00 1.60 1.60 91 1007.7
20260505180521 12 347 1.6 8.0 0.00 1.60 1.60 90 1007.9
20260505175521 12 346 1.6 9.7 0.00 1.60 1.60 91 1008.0
20260505174516 12 350 3.2 8.0 0.00 1.60 1.60 91 1008.2
20260505173521 12 332 1.6 8.0 0.00 1.60 1.60 91 1008.2
20260505172521 12 334 1.6 8.0 0.00 1.60 1.60 91 1008.0
20260505171521 12 333 3.2 4.8 0.00 1.60 1.60 91 1008.1
20260505170541 12 333 0.0 4.8 0.00 1.60 1.60 91 1008.1
20260505165522 12 333 0.0 6.4 0.00 1.60 1.60 91 1007.9
20260505164517 12 332 1.6 4.8 0.00 1.60 1.60 91 1007.9
20260505163516 13 332 0.0 4.8 0.00 1.60 1.60 91 1008.1
20260505162521 13 336 1.6 6.4 0.00 1.60 1.60 91 1008.0
20260505161521 13 337 0.0 6.4 0.00 1.60 1.60 91 1007.9
20260505160541 13 337 0.0 8.0 0.00 1.60 1.60 90 1007.9
20260505152521 15 184 0.0 4.8 0.00 1.60 1.60 91 1007.6
20260505151521 15 183 0.0 3.2 0.00 1.60 1.60 91 1007.8
20260505150521 15 183 0.0 4.8 0.03 1.60 1.60 91 1007.8
20260505140521 15 219 0.0 4.8 0.91 1.57 1.57 91 1007.8
20260505124521 17 185 1.6 8.0 0.00 0.00 0.00 67 1007.0
20260505123521 17 178 0.0 3.2 0.00 0.00 0.00 68 1006.4
20260505122521 17 0.0 0.0 0.00 0.00 0.00 67 1006.3
20260505121516 17 0.0 0.0 0.00 0.00 0.00 68 1006.1
20260505120521 17 0.0 0.0 0.00 0.00 0.00 67 1006.0
20260505115521 17 182 0.0 1.6 0.00 0.00 0.00 66 1006.1
20260505114521 17 182 0.0 3.2 0.00 0.00 0.00 66 1006.2
20260505113521 18 182 0.0 6.4 0.00 0.00 0.00 65 1006.4
20260505112522 18 177 0.0 6.4 0.00 0.00 0.00 65 1006.3
20260505111521 18 177 1.6 4.8 0.00 0.00 0.00 63 1006.4
20260505110516 18 177 0.0 4.8 0.00 0.00 0.00 63 1006.4
20260505101521 18 188 0.0 4.8 0.00 0.00 0.00 62 1006.0
20260505100516 18 197 0.0 9.7 0.00 0.00 0.00 61 1006.1
20260505095516 18 161 1.6 9.7 0.00 0.00 0.00 62 1006.1
20260505094521 18 183 3.2 12.9 0.00 0.00 0.00 62 1006.1
20260505093541 18 187 3.2 16.1 0.00 0.00 0.00 61 1006.1
20260505092521 18 167 3.2 16.1 0.00 0.00 0.00 61 1006.1
20260505091519 18 152 3.2 19.3 0.00 0.00 0.00 60 1006.1
20260505090521 18 180 3.2 11.3 0.00 0.00 0.00 60 1006.3
20260505085516 19 184 3.2 11.3 0.00 0.00 0.00 60 1006.4
20260505084521 19 180 3.2 11.3 0.00 0.00 0.00 60 1006.6
20260505083521 19 185 3.2 12.9 0.00 0.00 0.00 59 1006.7
20260505082521 19 188 3.2 14.5 0.00 0.00 0.00 59 1006.3
20260505081521 19 166 1.6 12.9 0.00 0.00 0.00 59 1006.3
20260505080521 19 185 4.8 16.1 0.00 0.00 0.00 59 1006.6
20260505075516 19 181 4.8 16.1 0.00 0.00 0.00 59 1006.6
20260505074516 19 189 6.4 16.1 0.00 0.00 0.00 59 1006.4
20260505073541 19 189 4.8 17.7 0.00 0.00 0.00 58 1006.2
20260505072521 19 182 4.8 17.7 0.00 0.00 0.00 58 1006.1
20260505071521 20 181 4.8 17.7 0.00 0.00 0.00 57 1006.1
20260505070541 20 185 6.4 24.1 0.00 0.00 0.00 56 1006.1
20260505065521 20 186 6.4 24.1 0.00 0.00 0.00 55 1006.3
20260505064536 20 186 8.0 22.5 0.00 0.00 0.00 55 1006.4
20260505063522 20 187 8.0 16.1 0.00 0.00 0.00 55 1006.3
20260505062521 20 186 6.4 19.3 0.00 0.00 0.00 55 1006.2
20260505061521 20 188 6.4 19.3 0.00 0.00 0.00 54 1006.2
20260505060541 20 188 8.0 25.7 0.00 0.00 0.00 54 1006.2
20260505055521 21 187 9.7 27.4 0.00 0.00 0.00 53 1006.1
20260505054521 21 189 9.7 25.7 0.00 0.00 0.00 53 1006.0
20260505053516 21 179 8.0 20.9 0.00 0.00 0.00 53 1006.0
20260505052521 21 187 8.0 19.3 0.00 0.00 0.00 53 1005.8
20260505051521 21 180 6.4 25.7 0.00 0.00 0.00 53 1005.6